[[{"header":{"parameterUnit":"m.s-1","parameterCategory":1,"la1":30.2992,"la2":30.254,"lo1":-89.0895,"lo2":-89.0443,"dy":0.0025,"dx":0.0025,"nx":19,"ny":19,"refTime":"2026-05-24T03:00:00:Z","depth":0,"parameterNumber":2,"parameterNumberName":"U-component_of_WINDS"},"data":[0,0,0,1.5566,1.5563,1.5396,1.5395,1.5218,1.5217,0,0,0,0,0,0,0,0,0,0,0,1.5639,1.5638,1.5566,1.5562,1.5396,1.5395,1.5218,1.5217,0,0,0,0,0,0,0,0,0,0,0,1.5639,1.5638,1.5638,1.5562,1.5396,1.5395,1.5219,1.5331,0,0,0,0,0,0,0,0,0,0,1.5487,1.5578,1.5638,1.5638,1.5561,1.5396,1.5395,1.5336,1.5324,1.531,0,1.5305,0,1.5258,1.5208,1.5207,0,0,0,1.5544,1.5588,1.5521,1.5638,1.556,1.5397,1.5466,1.5329,1.5316,1.5294,1.5302,1.5294,1.5255,1.5207,1.5206,1.5186,1.5187,0,0,1.5554,1.5621,1.5531,1.5514,1.5544,1.5471,1.5461,1.532,1.5332,1.5301,1.5289,1.5253,1.5206,1.5205,1.5185,1.5186,0,0,0,1.5592,1.5629,1.5564,1.5522,1.549,1.5467,1.5455,1.5338,1.5312,1.5287,1.525,1.5205,1.5203,1.5184,1.5185,1.5288,0,0,0,1.5597,1.5651,1.557,1.5609,1.5493,1.5412,1.5477,1.5322,1.5304,1.5251,1.5205,1.5202,1.5183,1.5185,1.5283,1.5325,0,0,0,1.5641,1.5656,1.564,1.5613,1.5544,1.5413,1.5378,1.5316,1.5282,1.5207,1.5201,1.5183,1.5185,1.5279,1.5318,1.5339,0,0,0,1.5708,1.5734,1.5643,1.5657,1.5546,1.5479,1.5378,1.5324,1.5272,1.5204,1.5183,1.5185,1.5278,1.5314,1.5335,1.5369,1.5389,0,0,1.5778,1.5745,1.5747,1.5661,1.5627,1.5499,1.5478,1.5366,1.5296,1.5226,1.5225,1.5285,1.5318,1.5338,1.5482,1.5499,0,0,0,1.5792,1.5795,1.5771,1.5725,1.5641,1.557,1.5454,1.5412,1.5349,1.5275,1.5296,1.5314,1.5323,1.5336,1.535,1.5353,1.5194,1.5194,1.5194,1.5988,1.5898,1.5896,1.5786,1.5742,1.5621,1.5577,1.5499,1.5421,1.5428,1.5406,1.5505,1.5523,1.5533,1.5537,1.5417,1.5417,1.5418,1.5418,1.6081,1.607,1.5966,1.5926,1.583,1.5795,1.5679,1.5625,1.5577,1.5514,1.5517,1.5455,1.5554,1.5553,1.5425,1.5424,1.5423,1.5422,1.5422,1.6199,1.6178,1.6127,1.605,1.6,1.5887,1.5846,1.576,1.5678,1.5682,1.5649,1.5647,1.5633,1.5672,1.5673,1.5673,1.5673,1.5674,1.5674,1.6341,1.628,1.6257,1.6169,1.6127,1.6061,1.5939,1.5895,1.5824,1.5764,1.5763,1.5684,1.5581,1.5557,1.5679,1.5678,1.5677,1.5677,1.5676,1.6468,1.6425,1.639,1.6348,1.6236,1.6192,1.6083,1.6,1.5951,1.5933,1.5852,1.5791,1.575,1.5738,1.5717,1.5873,1.5873,1.5873,1.5873,1.6566,1.6538,1.6481,1.642,1.635,1.6247,1.6208,1.6113,1.6008,1.5971,1.5936,1.5901,1.5893,1.5857,1.5842,1.5821,1.6,1.6,1.6,1.6639,1.6599,1.6583,1.6481,1.6387,1.6308,1.6267,1.62,1.6071,1.6003,1.594,1.5935,1.5878,1.5864,1.5795,1.5774,1.5734,0,0]},{"header":{"parameterUnit":"m.s-1","parameterCategory":1,"la1":30.2992,"la2":30.254,"lo1":-89.0895,"lo2":-89.0443,"dy":0.0025,"dx":0.0025,"nx":19,"ny":19,"refTime":"2026-05-24T03:00:00:Z","depth":0,"parameterNumber":3,"parameterNumberName":"V-component_of_WINDS"},"data":[0,0,0,1.3685,1.3685,1.3727,1.3728,1.3757,1.3757,0,0,0,0,0,0,0,0,0,0,0,1.3661,1.3661,1.3685,1.3686,1.3727,1.3728,1.3757,1.3757,0,0,0,0,0,0,0,0,0,0,0,1.3661,1.3661,1.3661,1.3686,1.3727,1.3728,1.3757,1.3733,0,0,0,0,0,0,0,0,0,0,1.3696,1.3663,1.3661,1.3661,1.3686,1.3727,1.3728,1.3732,1.3734,1.3728,0,1.3724,0,1.3741,1.3758,1.3758,0,0,0,1.3692,1.3661,1.3684,1.3661,1.3686,1.3727,1.371,1.3733,1.3736,1.3731,1.3724,1.3726,1.3742,1.3758,1.3758,1.3712,1.3712,0,0,1.369,1.3661,1.3682,1.3685,1.3682,1.3709,1.3712,1.3735,1.3724,1.3724,1.3727,1.3742,1.3758,1.3758,1.3713,1.3712,0,0,0,1.3679,1.3659,1.3681,1.3683,1.3693,1.371,1.3713,1.3723,1.3733,1.3727,1.3742,1.3758,1.3758,1.3713,1.3712,1.3659,0,0,0,1.3678,1.3652,1.368,1.3662,1.3693,1.3709,1.3699,1.3731,1.3735,1.3742,1.3758,1.3758,1.3714,1.3713,1.3661,1.3636,0,0,0,1.3662,1.3651,1.3654,1.3661,1.3678,1.371,1.3721,1.3733,1.3744,1.3758,1.3758,1.3714,1.3713,1.3664,1.364,1.3616,0,0,0,1.3635,1.3601,1.3652,1.3621,1.3678,1.3678,1.3721,1.3722,1.3728,1.3758,1.3714,1.3712,1.3665,1.3643,1.3618,1.3588,1.3574,0,0,1.3575,1.3593,1.3577,1.3624,1.3609,1.3674,1.3649,1.3679,1.3705,1.3707,1.3707,1.366,1.364,1.3616,1.3508,1.3496,0,0,0,1.3548,1.3536,1.3538,1.3546,1.3572,1.3592,1.3631,1.3643,1.3648,1.3702,1.3647,1.3636,1.3623,1.3609,1.36,1.359,1.3706,1.3706,1.3706,1.3416,1.3458,1.3434,1.3481,1.3488,1.3532,1.3539,1.3562,1.3596,1.3583,1.3582,1.3513,1.3496,1.3489,1.3478,1.3573,1.3572,1.3572,1.3572,1.3332,1.332,1.3375,1.3372,1.3414,1.341,1.3452,1.3477,1.3478,1.3515,1.3506,1.3541,1.3476,1.3468,1.3568,1.3569,1.3569,1.357,1.357,1.3247,1.3249,1.327,1.3289,1.3298,1.3346,1.3346,1.3384,1.3419,1.341,1.3413,1.3414,1.3418,1.341,1.341,1.341,1.3409,1.3409,1.3409,1.315,1.3176,1.3174,1.3205,1.3217,1.3238,1.3286,1.3297,1.3318,1.3346,1.3346,1.338,1.3464,1.3482,1.3405,1.3406,1.3407,1.3407,1.3407,1.3042,1.3075,1.3072,1.3085,1.3126,1.3133,1.3186,1.3207,1.3222,1.322,1.326,1.3317,1.3334,1.3343,1.3358,1.3253,1.3253,1.3253,1.3253,1.2969,1.2986,1.2993,1.3012,1.3035,1.3084,1.3076,1.3114,1.3157,1.3169,1.3191,1.3216,1.3222,1.3236,1.3247,1.3261,1.3134,1.3134,1.3134,1.2904,1.2926,1.2913,1.2963,1.3,1.3029,1.3024,1.304,1.3095,1.313,1.3178,1.3183,1.3224,1.3236,1.3265,1.3281,1.3309,0,0]}]]